| time (UTC) | temp F | wind direction | speed MPH | gust MPH | rain 1hr in | rain 24hr in | rain mn in | humidity % | barometer mb |
| 20260509200025 | 72 | 73 | 15.0 | 25.0 | 0.00 | 0.00 | 0.00 | 33 | 1002.8 |
| 20260509194515 | 71 | 8 | 13.0 | 26.0 | 0.00 | 0.00 | 0.00 | 33 | 1002.6 |
| 20260509193020 | 71 | 34 | 13.0 | 22.0 | 0.00 | 0.00 | 0.00 | 34 | 1002.6 |
| 20260509191512 | 71 | 46 | 11.0 | 29.0 | 0.00 | 0.00 | 0.00 | 34 | 1002.8 |
| 20260509190011 | 70 | 79 | 14.0 | 25.0 | 0.00 | 0.00 | 0.00 | 34 | 1002.7 |
| 20260509184509 | 70 | 48 | 12.0 | 27.0 | 0.00 | 0.00 | 0.00 | 34 | 1002.7 |
| 20260509183004 | 69 | 331 | 9.0 | 23.0 | 0.00 | 0.00 | 0.00 | 38 | 1002.4 |
| 20260509181501 | 68 | 35 | 7.0 | 17.0 | 0.00 | 0.00 | 0.00 | 36 | 1002.5 |
| 20260509180101 | 67 | 12 | 8.0 | 13.0 | 0.00 | 0.00 | 0.00 | 38 | 1002.7 |
| 20260509174557 | 66 | 345 | 4.0 | 15.0 | 0.00 | 0.00 | 0.00 | 39 | 1002.8 |
| 20260509173059 | 67 | 23 | 8.0 | 14.0 | 0.00 | 0.00 | 0.00 | 38 | 1002.8 |
| 20260509171551 | 67 | 113 | 9.0 | 19.0 | 0.00 | 0.00 | 0.00 | 38 | 1003.0 |
| 20260509170051 | 66 | 25 | 9.0 | 18.0 | 0.00 | 0.00 | 0.00 | 37 | 1003.1 |
| 20260509164548 | 67 | 71 | 7.0 | 17.0 | 0.00 | 0.00 | 0.00 | 39 | 1003.1 |
| 20260509163049 | 66 | 8 | 8.0 | 14.0 | 0.00 | 0.00 | 0.00 | 44 | 1003.1 |
| 20260509161546 | 65 | 346 | 7.0 | 14.0 | 0.00 | 0.00 | 0.00 | 46 | 1003.0 |
| 20260509160042 | 65 | 19 | 8.0 | 14.0 | 0.00 | 0.00 | 0.00 | 48 | 1002.9 |
| 20260509154537 | 64 | 23 | 7.0 | 11.0 | 0.00 | 0.00 | 0.00 | 51 | 1002.9 |
| 20260509153046 | 64 | 350 | 5.0 | 13.0 | 0.00 | 0.00 | 0.00 | 54 | 1002.9 |
| 20260509151539 | 64 | 19 | 6.0 | 10.0 | 0.00 | 0.00 | 0.00 | 56 | 1002.8 |
| 20260509150039 | 63 | 21 | 7.0 | 13.0 | 0.00 | 0.00 | 0.00 | 58 | 1002.8 |
| 20260509144527 | 62 | 351 | 7.0 | 12.0 | 0.00 | 0.00 | 0.00 | 64 | 1002.7 |
| 20260509143021 | 61 | 37 | 8.0 | 12.0 | 0.00 | 0.00 | 0.00 | 66 | 1002.6 |
| 20260509141518 | 60 | 10 | 9.0 | 15.0 | 0.00 | 0.00 | 0.00 | 68 | 1002.7 |
| 20260509140015 | 59 | 39 | 7.0 | 12.0 | 0.00 | 0.00 | 0.00 | 71 | 1002.5 |
| 20260509134513 | 59 | 58 | 6.0 | 10.0 | 0.00 | 0.00 | 0.00 | 74 | 1002.6 |
| 20260509133040 | 58 | 340 | 7.0 | 12.0 | 0.00 | 0.00 | 0.00 | 76 | 1002.3 |
| 20260509131537 | 57 | 338 | 7.0 | 14.0 | 0.00 | 0.00 | 0.00 | 78 | 1002.5 |
| 20260509130032 | 57 | 349 | 7.0 | 13.0 | 0.00 | 0.00 | 0.00 | 79 | 1002.4 |
| 20260509124530 | 56 | 341 | 9.0 | 12.0 | 0.00 | 0.00 | 0.00 | 80 | 1002.7 |
| 20260509123027 | 56 | 347 | 8.0 | 12.0 | 0.00 | 0.00 | 0.00 | 81 | 1002.7 |
| 20260509121524 | 55 | 356 | 5.0 | 11.0 | 0.00 | 0.00 | 0.00 | 82 | 1002.4 |
| 20260509120025 | 54 | 349 | 8.0 | 11.0 | 0.00 | 0.00 | 0.00 | 82 | 1002.5 |
| 20260509114518 | 54 | 339 | 5.0 | 15.0 | 0.00 | 0.00 | 0.00 | 82 | 1002.5 |
| 20260509113018 | 54 | 356 | 4.0 | 10.0 | 0.00 | 0.00 | 0.00 | 82 | 1002.1 |
| 20260509111517 | 54 | 357 | 5.0 | 12.0 | 0.00 | 0.00 | 0.00 | 82 | 1002.1 |
| 20260509110048 | 54 | 334 | 7.0 | 11.0 | 0.00 | 0.00 | 0.00 | 81 | 1001.7 |
| 20260509104547 | 54 | 350 | 7.0 | 12.0 | 0.00 | 0.00 | 0.00 | 81 | 1001.8 |
| 20260509103015 | 54 | 19 | 6.0 | 11.0 | 0.00 | 0.00 | 0.00 | 82 | 1001.9 |
| 20260509101514 | 54 | 352 | 5.0 | 12.0 | 0.00 | 0.00 | 0.00 | 82 | 1002.1 |
| 20260509100011 | 54 | 342 | 5.0 | 10.0 | 0.00 | 0.01 | 0.00 | 82 | 1002.0 |
| 20260509094510 | 54 | 334 | 7.0 | 12.0 | 0.00 | 0.01 | 0.00 | 82 | 1001.8 |
| 20260509093010 | 54 | 337 | 8.0 | 14.0 | 0.00 | 0.01 | 0.00 | 82 | 1001.9 |
| 20260509091508 | 54 | 307 | 6.0 | 12.0 | 0.00 | 0.01 | 0.00 | 82 | 1002.1 |
| 20260509090004 | 54 | 349 | 7.0 | 12.0 | 0.00 | 0.01 | 0.00 | 82 | 1002.2 |
| 20260509084503 | 54 | 352 | 7.0 | 12.0 | 0.00 | 0.01 | 0.00 | 83 | 1002.6 |
| 20260509083006 | 53 | 355 | 6.0 | 10.0 | 0.00 | 0.01 | 0.00 | 84 | 1002.5 |
| 20260509081504 | 53 | 348 | 6.0 | 10.0 | 0.00 | 0.01 | 0.00 | 84 | 1002.6 |
| 20260509080100 | 53 | 328 | 5.0 | 10.0 | 0.00 | 0.01 | 0.00 | 83 | 1002.6 |
| 20260509074608 | 54 | 339 | 4.0 | 10.0 | 0.00 | 0.01 | 0.00 | 83 | 1002.7 |
| 20260509073056 | 54 | 339 | 4.0 | 12.0 | 0.00 | 0.01 | 0.00 | 82 | 1002.7 |
| 20260509071608 | 54 | 319 | 4.0 | 10.0 | 0.00 | 0.01 | 0.00 | 82 | 1002.9 |
| 20260509070048 | 54 | 350 | 5.0 | 11.0 | 0.00 | 0.01 | 0.00 | 81 | 1003.3 |
| 20260509064547 | 55 | 350 | 4.0 | 11.0 | 0.00 | 0.01 | 0.00 | 81 | 1003.4 |
| 20260509063044 | 55 | 324 | 5.0 | 10.0 | 0.00 | 0.01 | 0.00 | 82 | 1003.7 |
| 20260509061552 | 55 | 335 | 4.0 | 10.0 | 0.00 | 0.01 | 0.00 | 81 | 1004.1 |
| 20260509060012 | 55 | 348 | 2.0 | 8.0 | 0.00 | 0.01 | 0.00 | 81 | 1004.1 |
| 20260509054511 | 56 | 318 | 3.0 | 8.0 | 0.00 | 0.01 | 0.00 | 79 | 1004.2 |
| 20260509053042 | 56 | 337 | 3.0 | 8.0 | 0.00 | 0.01 | 0.00 | 78 | 1004.3 |
| 20260509051542 | 56 | 330 | 5.0 | 9.0 | 0.00 | 0.01 | 0.00 | 77 | 1004.2 |
| 20260509050047 | 57 | 341 | 3.0 | 7.0 | 0.00 | 0.01 | 0.00 | 75 | 1004.2 |
| 20260509044537 | 57 | 337 | 4.0 | 10.0 | 0.00 | 0.01 | 0.00 | 74 | 1004.1 |
| 20260509043038 | 57 | 331 | 4.0 | 10.0 | 0.00 | 0.01 | 0.00 | 72 | 1004.2 |
| 20260509041535 | 57 | 321 | 4.0 | 10.0 | 0.00 | 0.01 | 0.00 | 71 | 1004.1 |
| 20260509040031 | 57 | 300 | 5.0 | 9.0 | 0.00 | 0.01 | 0.00 | 70 | 1004.3 |
| 20260509034530 | 57 | 320 | 3.0 | 8.0 | 0.00 | 0.01 | 0.00 | 68 | 1004.3 |
| 20260509033029 | 57 | 309 | 3.0 | 9.0 | 0.00 | 0.01 | 0.00 | 68 | 1004.4 |
| 20260509031532 | 57 | 295 | 2.0 | 5.0 | 0.00 | 0.01 | 0.00 | 68 | 1004.5 |
| 20260509030100 | 57 | 290 | 2.0 | 7.0 | 0.00 | 0.01 | 0.00 | 68 | 1004.5 |
| 20260509024556 | 57 | 262 | 1.0 | 8.0 | 0.00 | 0.01 | 0.00 | 68 | 1004.4 |
| 20260509023057 | 57 | 262 | 2.0 | 9.0 | 0.00 | 0.01 | 0.00 | 68 | 1004.6 |
| 20260509021552 | 58 | 254 | 4.0 | 9.0 | 0.00 | 0.01 | 0.00 | 66 | 1004.7 |
| 20260509020051 | 58 | 250 | 4.0 | 9.0 | 0.00 | 0.01 | 0.00 | 66 | 1004.7 |
| 20260509014550 | 58 | 252 | 5.0 | 10.0 | 0.00 | 0.01 | 0.00 | 65 | 1004.7 |
| 20260509013049 | 59 | 249 | 3.0 | 10.0 | 0.00 | 0.01 | 0.00 | 64 | 1004.7 |
| 20260509011548 | 59 | 253 | 3.0 | 10.0 | 0.00 | 0.01 | 0.00 | 63 | 1004.7 |
| 20260509010048 | 60 | 276 | 4.0 | 10.0 | 0.00 | 0.01 | 0.00 | 62 | 1004.8 |
| 20260509010046 | 60 | 118 | 4.0 | 10.0 | 0.00 | 0.01 | 0.00 | 62 | 1004.8 |
| 20260509004550 | 61 | 255 | 4.0 | 10.0 | 0.00 | 0.01 | 0.00 | 60 | 1004.7 |
| 20260509003045 | 61 | 254 | 7.0 | 11.0 | 0.00 | 0.01 | 0.00 | 60 | 1004.7 |
| 20260509001542 | 62 | 242 | 7.0 | 13.0 | 0.00 | 0.01 | 0.00 | 59 | 1004.7 |
| 20260509000053 | 63 | 225 | 8.0 | 13.0 | 0.00 | 0.01 | 0.00 | 58 | 1004.8 |
| 20260508234540 | 63 | 256 | 5.0 | 10.0 | 0.00 | 0.01 | 0.00 | 57 | 1005.0 |
| 20260508233040 | 63 | 194 | 2.0 | 12.0 | 0.00 | 0.01 | 0.00 | 55 | 1005.1 |
| 20260508231534 | 63 | 257 | 2.0 | 9.0 | 0.00 | 0.01 | 0.00 | 53 | 1005.2 |
| 20260508230034 | 63 | 243 | 5.0 | 12.0 | 0.00 | 0.01 | 0.00 | 52 | 1005.2 |
| 20260508224532 | 64 | 199 | 5.0 | 13.0 | 0.00 | 0.01 | 0.00 | 48 | 1005.2 |
| 20260508223036 | 64 | 253 | 6.0 | 13.0 | 0.00 | 0.01 | 0.00 | 45 | 1005.4 |
| 20260508221534 | 64 | 256 | 6.0 | 13.0 | 0.00 | 0.01 | 0.00 | 44 | 1005.4 |
| 20260508220035 | 64 | 239 | 5.0 | 15.0 | 0.00 | 0.01 | 0.00 | 44 | 1005.5 |
| 20260508214526 | 64 | 246 | 4.0 | 12.0 | 0.00 | 0.01 | 0.00 | 43 | 1005.6 |
| 20260508213031 | 65 | 265 | 7.0 | 15.0 | 0.00 | 0.01 | 0.00 | 40 | 1005.5 |
| 20260508211521 | 65 | 254 | 5.0 | 11.0 | 0.00 | 0.01 | 0.00 | 38 | 1005.7 |
| 20260508210019 | 65 | 242 | 8.0 | 13.0 | 0.00 | 0.05 | 0.00 | 37 | 1005.9 |
| 20260508204518 | 65 | 214 | 2.0 | 8.0 | 0.00 | 0.05 | 0.00 | 38 | 1006.0 |
| 20260508203016 | 65 | 287 | 2.0 | 7.0 | 0.00 | 0.05 | 0.00 | 34 | 1006.3 |
| 20260508201556 | 66 | 179 | 3.0 | 8.0 | 0.00 | 0.05 | 0.00 | 31 | 1006.5 |